"Pseudo-MPEC" for ST23K46
Created 2023 Nov 21 19:22:13 UT using Find_Orb
Click here for an explanation of pseudo-MPECs
Astrometry: ST23K46* C2023 11 12.%wci#e%,Ly:o^Kaf3$.vDt\GECxbf!MFVPR2,X1MoKh5_lw_BA3
U68 ST23K46 C2023 11 12Y_Z$\3f#4nIDDUV*3A*`j/(YnN
AstrometryV.qQAPjV.'CN*1B-
U68 ST23K46 C2023 11 12V@bfJO..iRq2fEBNpNJFZ.y#]]4%DjF,1J[?YJqQu]=Al7Tp8LPL
U68 ST23K46 C2023 11 12S]cg=.2cnCg*FTgw*KoK+;_1.1a/7nlU5/cGLWD:a::p\l-;%8Vu
U68 ST23K46 C2023 11 19Qg*(m.v9c1I3O71CyL8I.*#oE\a!W8B;.$.TH%eK+RTCdxvj6yxt
W24 ST23K46 C2023 11 19VG?8.tIp?.NMK(O*GTjcga=.Q`%r-xdoL3oB,WpZ\Rcgyr1y[x=v
W24 ST23K46 C2023 11 19;%'1e,)L*GuV4DRAU8Tr%Sj6-%h$!)*(:IhwPLxK\3p4.LjcdD[j
W24 ST23K46 C2023 11 19RZ_+#ca`GC!q2RG^QrAB/LniYx$#**7Cj:aQ!.tVY,bEmS@euO7D
W24 ST23K46 C2023 11 19)ZW\_Z@iKdY@Kdu3_+mEmsD;dVnrQRWg7k.[Ln\wY1dW=d+b%1L+
W24 ST23K46 C2023 11 19gt#ALVxmGi
redacted;!(`Mwv$V.iN$kh+-m=4S^.V4fX(4)b1m8
W24 ST23K46 C2023 11 19i#2Q%3wmr^;irnN'J.okfw%h[u*FiC5lwxiOJa3eQ,3Yg]g\(-4-
W24 ST23K46 C2023 11 19Po]Z;LW*rU`p1Oy[k3v?3/`KPvS]0;3%xHtJ%Yv4sG#F[nY6DRIS
W24 ST23K46 C2023 11 19lN)i(@yCTYuV-y[@uJ:BJ=C_eVu/cyUMyD/?D,M#')0?QViExmbu
W24 ST23K46 C2023 11 19RMRN6;'Rp.+;rJ9$xp`[ZfeBi0u6rJiyqiqxuB`7XQP])Fwdc?l`
W24 ST23K46 C2023 11 19b5yO_h(_r37mUQNF0%vGbvD#aEIG.%6a.vO78hcKY0[0
click^'t
W24 ST23K46 C2023 11 19=XAYT?`1'_Z(G`?.H;]_S%X^3mIKOCC-?;^Me-nIGgXJ(o/5ufG3
W24 ST23K46 C2023 11 19So6XDZ!+yXF]ts#v[KF\8X,t'pcV60ji%ZG#n#.m[/+U(bR=3RT%
W24 ST23K46 C2023 11 19d:Sk0HFli,L7cA:Lhu[M*=5\5hi[R)4xnPFnWl^=O9C,(g/_E_t!
W24 ST23K46 C2023 11 19'c]4Fq2:X/Y$mPBB06e=r]*'9Cx=(ZZ?n'6Al8*Kw!8s2N8OFO3(
W24 ST23K46 C2023 11 19iW.ANj!//I6
hereO1lAr7ms*g_XYhY/V;RgIs;:O$#x:#(JIBB;5
W24 ST23K46 C2023 11 19;EVUW6C6yS+Q@U$6IS:,/*45.71PREQW/GxyQ+QL:/bccVCIe']T
W24 ST23K46 C2023 11 195tee'f1Xw1gDcADoLOAf^])!
for9LJYTagi6-U=s@OJ+qno8lddA
W24 ST23K46 C2023 11 19_PYB355_9Hm!6]kCl.pf7@q.hfFZ*dUinhe'W!Aq#4L9K=6q%,]U
W24 ST23K46 C2023 11 19%nuK(6]I^5f]j-TmuZ-GQw0*VMd1,Y`1afGyj`%%Lo3K.+#U]!Nm
W24 ST23K46 C2023 11 19_*tIo\U8xv9wfyVE%rn8C0!)40@i^gNBbwkBZ!42w(/=[?;kdSit
W24 ST23K46 C2023 11 19.rb?8QW%YAWEkF,#Chf:$_0?PtL?I[k1)=Wcv1^-WR#c/!QOoU4N
W24 ST23K46 C2023 11 19?!8I6*563,GP\Y5jj7vGT,H,[r;JxjiRE'V[ekKyQr)3+Wu0TCd:
W24 ST23K46 C2023 11 19EJO=fyo0BH/$$jiIoBgLgsjEHTyk?97ih./B$s\B^fau.ac4N6Ys
W24 ST23K46 C2023 11 19^3LPR?Avb)_*-3HgoEKv12qsM4.V$A)cT0maOh77qPu%cxF3Cr/.
W24 ST23K46 C2023 11 19^Z[fICBMd%j?5]ZeKqVCG,1*Hx'taiYAJyDnuLXQ61U%(eH*qJo!
W24 ST23K46 C2023 11 19Mm\GTKZOvYtjT/.E?Tv?D,kIUFvH)wTX+*7YNFY+Uv9TlX.h4'gt
W24 ST23K46 C2023 11 19L6OsfwVcSdA_o3CYR(hNABtT*=he*c8@8e`jAIC+E\XUxk-35HU/
W24 ST23K46 C2023 11 199LD$0-p*[jj:g.9Jbq%:fuO!C^dywkwU!_,_av)jpL)thTS)J?$S
W24 ST23K46 C2023 11 19t!7_Th*+x+j$kOeB2)f]/pWR$15)P9\KnNdpn-nSxLE'lA:u-w_W
W24 ST23K46 C2023 11 19.k6??J?UOg)9iaPH:Nu90gZJh!Uy/F5)LTSE0(2muUm\,pP4kjD2
W24 ST23K46 C2023 11 19$HNF#^Fg*[p16IV+Cmx;b^18sV\qha@p-wTSd9iZJ%]ZYh#LHgd`
W24 ST23K46 C2023 11 19R#3.9+v%GbUoAn^!r=9Sv[V#*2DnMwK`_eE\?$]'[8Qa5WYSpf)R
W24 ST23K46 C2023 11 19C,\/QP\(VwgAv#:!`v\SM8nboMofnyk_T6^7r:4`50cPe$LG1y_%
W24 ST23K46 C2023 11 19;/,1ud9kIGF:+]2FKr5[6eGnkH%jb*`qjqFk[96*`6Dks1kD)'Zs
W24 ST23K46 C2023 11 19F[A8]F\E*Bpu9@NUV3oGWa@hR?L3SyZ4ALqA.qLQA!D8AsGQ,=x=
W24 ST23K46 C2023 11 19$s`0lfxEe23`^*(lU.CQ/Bi*;65!-4r1aXvSxNxd`1JDo,6%:4V#
W24 ST23K46 C2023 11 19Vy-KiCw1xbr18K/f#MLhxp7^ayuL+%d0o-jFh.jS!ocgr6::hdQM
W24 ST23K46 C2023 11 19KHt(_TloIS_IK(1;[20DT\5nv#2(*^P08$mxX9G[ma*i4$(D#\[l
W24 ST23K46 C2023 11 19*1o=9TUidmn1kKmbTl6wbJUEIX'*J2;t)/(^xlQF$wM)D5GR[7)x
W24 ST23K46 KC2023 11 20b^C1q$ouj0IssQ1rx=rV:y_8h`jJwsH_1EJ(I?X:*'g#YyOW30!L
L90 ST23K46 KC2023 11 20Hj2ln/?pIP;s3mkXwrFT+E^;`)KaUsQg?Ew^;40s!Ofl-=?-r$,V
L90 ST23K46 KC2023 11 20AGpJrWZEcG.x$xk4Ll=l9K0X2\6slW@b\m
explanation?pl(=1k
L90 ST23K46 KC2023 11 21.25351 02 53 13.303+27 48 02.84 ~BL8b 19.9 GVNEOCPU52 ST23K46 KC2023 11 21.25641 02 53 13.152+27 47 59.03 ~BL8b 20.1 GVNEOCPU52 ST23K46 KC2023 11 21.25931 02 53 12.895+27 47 58.09 ~BL8b 19.2 GVNEOCPU52 Station data: (L90) ABObservatory, Rosarno (N38.455733 E15.979490) Italy. (U52) Shasta Valley Observatory, Grenada (N41.579164 W122.548890) US/California. Observer J. E. Rogers. Measurers J. E. Rogers, D. Parrott. 0.30-m Helin Telescope + CCD. (U68) JPL SynTrack Robotic Telescope, Auberry (N37.070387 W119.412990) US/California. Observers N. Saini, C. Zhai, R. Trahan, M. Zhan, M. Shao. 0.28-m f/2.2 Schmidt + CCD. (W24) Shamrock Banks Observatory, Clare (N43.830757 W84.761830) US/Michigan. Observer R. Townsend. 0.20-m f/8 Richey Chretien + CCD. Orbital elements: ST23K46 Perihelion 2023 Dec 10.79984 TT = 19:11:46 (JD 2460289.29984) Epoch 2023 Nov 21.0 TT = JDT 2460269.5 Earth MOID: 0.0180 AutoNEOCP M 341.71902172 (J2000 ecliptic) n 0.92328909 Peri. 179.25155 a 1.04450593 Node 258.41419 e 0.0391316 Incl. 0.55807 P 1.07/389.90d H 27.48 G 0.15 q 1.00363264 Q 1.08537922 6 of 50 observations 2023 Nov. 20-21 (8.8 hr); mean residual 1".73
Residuals in arcseconds: 231112 U68(220'+ 5361-) 231119 W24(2444+ 1603-) 231119 W24(2439+ 1588-) 231112 U68(220'+ 5360-) 231119 W24(2443+ 1605-) 231119 W24(2442+ 1588-) 231112 U68(220'+ 5340-) 231119 W24(2443+ 1604-) 231119 W24(2442+ 1588-) 231112 U68(220'+ 5338-) 231119 W24(2447+ 1604-) 231119 W24(2445+ 1584-) 231119 W24(2452+ 1611-) 231119 W24(2443+ 1601-) 231119 W24(2443+ 1586-) 231119 W24(2452+ 1613-) 231119 W24(2447+ 1605-) 231119 W24(2448+ 1581-) 231119 W24(2449+ 1612-) 231119 W24(2442+ 1602-) 231119 W24(2444+ 1582-) 231119 W24(2449+ 1611-) 231119 W24(2442+ 1596-) 231119 W24(2449+ 1584-) 231119 W24(2447+ 1610-) 231119 W24(2442+ 1597-) 231119 W24(2442+ 1581-) 231119 W24(2447+ 1609-) 231119 W24(2443+ 1596-) 231119 W24(2448+ 1583-) 231119 W24(2450+ 1608-) 231119 W24(2445+ 1597-) 231120 L90 .65+ 4.3- 231119 W24(2446+ 1606-) 231119 W24(2444+ 1593-) 231120 L90 .66- 1.4+ 231119 W24(2450+ 1610-) 231119 W24(2442+ 1594-) 231120 L90 .08- 3.0+ 231119 W24(2446+ 1606-) 231119 W24(2442+ 1594-) 231121 U52 .33- .90- 231119 W24(2447+ 1604-) 231119 W24(2445+ 1595-) 231121 U52 .48+ 1.0- 231119 W24(2448+ 1608-) 231119 W24(2447+ 1596-) 231121 U52 .09- 1.8+ 231119 W24(2445+ 1608-) 231119 W24(2442+ 1594-) Ephemerides (geocentric): Date (UTC) HH RA Dec delta r elong mag " sig PA ---- -------- ------------ ------------ ------ ------ ----- --- -------- 2023 11 21 19 02 53 56.382 +27 36 14.78 .01837 1.0057 165.7 19.6 3511 141 2023 11 21 20 02 54 00.298 +27 35 10.61 .01837 1.0057 165.7 19.6 3425 141 2023 11 21 21 02 54 04.219 +27 34 06.42 .01837 1.0057 165.7 19.6 3378 141 2023 11 21 22 02 54 08.146 +27 33 02.19 .01837 1.0057 165.7 19.6 3359 141 2023 11 21 23 02 54 12.079 +27 31 57.93 .01837 1.0057 165.7 19.6 3358 141 2023 11 22 00 02 54 16.017 +27 30 53.65 .01837 1.0056 165.7 19.6 3372 141 2023 11 22 01 02 54 19.961 +27 29 49.33 .01837 1.0056 165.7 19.6 3397 141 2023 11 22 02 02 54 23.911 +27 28 44.99 .01837 1.0056 165.7 19.6 3431 141 2023 11 22 03 02 54 27.867 +27 27 40.62 .01837 1.0056 165.7 19.6 3471 141 2023 11 22 04 02 54 31.828 +27 26 36.22 .01837 1.0056 165.7 19.6 3517 141 2023 11 22 05 02 54 35.795 +27 25 31.79 .01837 1.0056 165.6 19.6 3567 141 2023 11 22 06 02 54 39.767 +27 24 27.33 .01837 1.0056 165.6 19.6 3621 141 2023 11 22 07 02 54 43.745 +27 23 22.85 .01837 1.0056 165.6 19.6 3679 141 2023 11 22 08 02 54 47.729 +27 22 18.33 .01837 1.0056 165.6 19.6 3739 141 2023 11 22 09 02 54 51.718 +27 21 13.80 .01837 1.0056 165.6 19.6 3801 141 2023 11 22 10 02 54 55.713 +27 20 09.23 .01837 1.0056 165.6 19.6 3865 141 2023 11 22 11 02 54 59.713 +27 19 04.64 .01837 1.0055 165.6 19.6 3931 141 2023 11 22 12 02 55 03.719 +27 18 00.02 .01837 1.0055 165.6 19.6 3999 141 2023 11 22 13 02 55 07.730 +27 16 55.37 .01837 1.0055 165.6 19.6 4068 141 2023 11 22 14 02 55 11.747 +27 15 50.70 .01837 1.0055 165.6 19.6 4138 141 2023 11 22 15 02 55 15.770 +27 14 46.00 .01837 1.0055 165.6 19.6 4209 141 2023 11 22 16 02 55 19.798 +27 13 41.27 .01837 1.0055 165.6 19.6 4282 141 2023 11 22 17 02 55 23.831 +27 12 36.52 .01837 1.0055 165.5 19.6 4355 141 2023 11 22 18 02 55 27.870 +27 11 31.74 .01837 1.0055 165.5 19.6 4429 141 2023 11 22 19 02 55 31.914 +27 10 26.94 .01837 1.0055 165.5 19.6 4503 141 2023 11 22 20 02 55 35.964 +27 09 22.11 .01838 1.0055 165.5 19.6 4578 141 2023 11 22 21 02 55 40.019 +27 08 17.26 .01838 1.0055 165.5 19.6 4654 141 2023 11 22 22 02 55 44.080 +27 07 12.38 .01838 1.0055 165.5 19.6 4731 141 2023 11 22 23 02 55 48.146 +27 06 07.48 .01838 1.0054 165.5 19.6 4807 141 2023 11 23 00 02 55 52.217 +27 05 02.55 .01838 1.0054 165.5 19.6 4885 141 2023 11 23 01 02 55 56.293 +27 03 57.60 .01838 1.0054 165.5 19.6 4963 141 2023 11 23 02 02 56 00.375 +27 02 52.62 .01838 1.0054 165.5 19.6 5041 141 2023 11 23 03 02 56 04.463 +27 01 47.62 .01838 1.0054 165.5 19.6 5119 141 2023 11 23 04 02 56 08.555 +27 00 42.60 .01838 1.0054 165.4 19.6 5198 141 2023 11 23 05 02 56 12.653 +26 59 37.55 .01838 1.0054 165.4 19.6 5278 141 2023 11 23 06 02 56 16.756 +26 58 32.48 .01838 1.0054 165.4 19.6 5357 141 2023 11 23 07 02 56 20.864 +26 57 27.38 .01838 1.0054 165.4 19.6 5437 141 2023 11 23 08 02 56 24.978 +26 56 22.26 .01838 1.0054 165.4 19.6 5517 141 2023 11 23 09 02 56 29.096 +26 55 17.12 .01838 1.0054 165.4 19.6 5598 141 2023 11 23 10 02 56 33.220 +26 54 11.95 .01838 1.0053 165.4 19.6 5679 141 2023 11 23 11 02 56 37.349 +26 53 06.77 .01838 1.0053 165.4 19.6 5760 141 2023 11 23 12 02 56 41.484 +26 52 01.55 .01838 1.0053 165.4 19.6 5841 141 2023 11 23 13 02 56 45.623 +26 50 56.32 .01839 1.0053 165.4 19.6 5922 141 2023 11 23 14 02 56 49.767 +26 49 51.06 .01839 1.0053 165.3 19.6 6004 141 2023 11 23 15 02 56 53.917 +26 48 45.79 .01839 1.0053 165.3 19.6 6086 141 2023 11 23 16 02 56 58.072 +26 47 40.49 .01839 1.0053 165.3 19.6 6168 141 2023 11 23 17 02 57 02.231 +26 46 35.16 .01839 1.0053 165.3 19.6 6250 141 2023 11 23 18 02 57 06.396 +26 45 29.82 .01839 1.0053 165.3 19.6 6332 141